Regional Weather Roundup
Issued by NWS Newport/Morehead, NC

Current Version | Previous Version | Graphics & Text | Print | Product List | Glossary Off
Versions: 1 2 3 4 5 6 7 8 9 10 11 12 13 14 15 16 17 18 19 20 21 22 23 24 25 26 27 28 29 30 31 32 33 34 35 36 37 38 39 40 41 42 43 44 45 46 47 48 49 50

000
ASUS42 KMHX 282325
RWRMHX
WEATHER ROUNDUP FOR EASTERN NORTH CAROLINA
NATIONAL WEATHER SERVICE NEWPORT/MOREHEAD CITY NC
700 PM EDT TUE MAR 28 2017

NOTE: "FAIR" INDICATES FEW OR NO CLOUDS BELOW 12,000 FEET
WITH NO SIGNIFICANT WEATHER AND/OR OBSTRUCTIONS TO VISIBILITY

NCZ015>017-031-032-045>047-102-103-290000-
NORTH COAST

CITY           SKY/WX    TMP DP  RH WIND       PRES   REMARKS
EDENTON        DRIZZLE   71  60  69 CALM      29.88R
ELIZABETH CITY PTCLDY    68  59  73 S8        29.87R
KITTY HAWK     NOT AVBL
MANTEO         CLOUDY    64  59  82 SW8       29.88R

$$

NCZ045>047-081-094-103-104-290000-
CENTRAL COAST

CITY           SKY/WX    TMP DP  RH WIND       PRES   REMARKS
FRISCO         CLOUDY    68  63  84 SW6       29.89S HAZE

$$

NCZ095-097-098-100-101-290000-
SOUTHERN COAST

CITY           SKY/WX    TMP DP  RH WIND       PRES   REMARKS
BEAUFORT       MOCLDY    68  64  87 SW9       29.88S
CEDAR ISLAND   NOT AVBL
JACKSONVILLE   CLOUDY    66  65  96 S3        29.87R
PINEY ISLAND   CLOUDY   N/A N/A N/A SW10      29.87F
WILMINGTON     CLEAR     73  60  63 SW13      29.87R


$$

NCZ011>013-027>030-043-044-078>080-089-090>093-098-290000-
COASTAL PLAIN

CITY           SKY/WX    TMP DP  RH WIND       PRES   REMARKS
AHOSKIE          N/A     63  61  93 CALM      29.87R
CLINTON        PTCLDY    74  62  65 CALM      29.88R
ELIZABETHTOWN  LGT RAIN  78  60  54 NW5       29.86R
GOLDSBORO      CLEAR     72  64  74 CALM      29.86R
GREENVILLE     CLOUDY    68  59  73 N8        29.91R
HAVELOCK       CLOUDY    67  62  84 S3        29.88S THUNDER
KENANSVILLE    CLOUDY    70  63  78 CALM      29.87S
KINSTON        PTCLDY    66  63  88 CALM      29.89R
NEW BERN       LGT RAIN  66  64  93 N3        29.90R
RICHLANDS      MOCLDY    71  64  78 NE6       29.87R
ROCKY MOUNT    MOCLDY    70  59  68 NE7       29.88R
WASHINGTON     CLOUDY    70  64  83 SW7       29.87S
WHITEVILLE     PTCLDY    78  61  54 CALM      29.85S

$$

AMZ130-135-150-152-154-156-158-170-250-252-270-ANZ085-086-088-633-658-670-290000-
MARINE OBSERVATIONS

STATION/POSITION TIME  TEMP    WIND        PRES    WAVE   SWELL
                       AIR SEA DIR/SP/G            HT/PER HT/PER
                 (UTC) (F)     (DEG/KT/KT) (MB)    (FT/S) (FT/S)
CHESAPEAKE LIGHT NOT AVBL
64 E VA BEACH    2250   53 49  180/  6/  6 1011.0    4/10   3/10
DUCK             2300   66 47  220/  8/ 10 1011.0
2 E DUCK         2300      50                N/A     3/10   2/11
OREGON INLET     2300   63 60  200/  9/ 10 1011.6
13E OREGON INLT  2248      53                N/A     4/10   3/10
HATTERAS CG      2300   67 63  220/  4/  8 1012.0
DIAMOND BUOY     2150   72 75  220/ 12/ 14 1012.2    5/10   3/10
CAPE LOOKOUT     2300   68     220/  8/ 14 1011.5
BEAUFORT LAB     2300   66 62  220/  5/  9 1010.8
30 SE NEW RVR IN 2308   68     230/ 10/ 14 1011.8
30 SE NEW RVR IN 2313      64                N/A     6/10   2/11
27 SE WRIGHTSVLE 2308   70 68  210/ 16/ 21 1010.8
5 SE WRIGHTSVLE  2308   64 59  210/ 12/ 19 1011.9
225 S CAPE HAT   2250   70 74  190/  8/ 10 1015.4    6/10   7/10
41 SE CHARLESTON 2250   72 72  210/ 16/ 17 1012.3    5/11   5/11

$$



USA.gov is the U.S. government's official web portal to all federal, state and local government web resources and services.